Terminal Aerodrome Forecast
Issued by NWS Blacksburg, VA

Home | Current Version | Previous Version | Text Only | Print | Product List | Glossary On
Versions: 1 2 3 4 5 6 7 8 9 10 11 12 13 14 15 16 17 18 19
000
FTUS41 KRNK 260530
TAFDAN
TAF
KDAN 260530Z 2606/2706 30006KT P6SM SCT250
     FM261700 20007KT P6SM OVC050
     FM270200 VRB02KT P6SM OVC045
     FM270400 VRB02KT 3SM -RA SCT015 OVC035=

USA.gov is the U.S. government's official web portal to all federal, state and local government web resources and services.